Time,TemperatureF,DewpointF,PressureIn,WindDirection,WindDirectionDegrees,WindSpeedMPH,WindSpeedGustMPH,Humidity,HourlyPrecipIn,Conditions,Clouds,dailyrainin,SolarRadiationWatts/m^2,SoftwareType,DateUTC
2013-04-23 00:04:00,21.1,13.5,30.45,WNW,300,1.0,3.0,72,0.00,,,0.00,0,Wunderground v.1.15,2013-04-23 06:04:00,
2013-04-23 00:10:00,21.0,13.4,30.45,WNW,300,1.0,1.0,72,0.00,,,0.00,0,Wunderground v.1.15,2013-04-23 06:10:00,
2013-04-23 00:16:00,21.0,13.4,30.45,WNW,303,1.0,3.0,72,0.00,,,0.00,0,Wunderground v.1.15,2013-04-23 06:16:00,
2013-04-23 00:22:00,20.9,13.6,30.45,NW,321,3.0,5.0,73,0.00,,,0.00,0,Wunderground v.1.15,2013-04-23 06:22:00,
2013-04-23 00:28:00,20.6,13.3,30.45,NW,326,3.0,5.0,73,0.00,,,0.00,0,Wunderground v.1.15,2013-04-23 06:28:00,
2013-04-23 00:34:00,20.2,13.5,30.44,NE,34,4.0,5.0,75,0.00,,,0.00,0,Wunderground v.1.15,2013-04-23 06:34:00,
2013-04-23 00:40:00,19.7,13.4,30.44,NE,36,5.0,5.0,76,0.00,,,0.00,0,Wunderground v.1.15,2013-04-23 06:40:00,
2013-04-23 00:46:00,19.5,13.5,30.44,NE,52,4.0,5.0,77,0.00,,,0.00,0,Wunderground v.1.15,2013-04-23 06:46:00,
2013-04-23 00:52:00,19.2,13.2,30.44,NNE,28,3.0,6.0,77,0.00,,,0.00,0,Wunderground v.1.15,2013-04-23 06:52:00,
2013-04-23 00:58:00,19.0,13.3,30.44,NNE,32,4.0,6.0,78,0.00,,,0.00,0,Wunderground v.1.15,2013-04-23 06:58:00,
2013-04-23 01:06:00,18.9,13.5,30.45,NNE,27,4.0,7.0,79,0.00,,,0.00,0,Wunderground v.1.15,2013-04-23 07:06:00,
2013-04-23 01:12:00,18.6,13.2,30.45,NNE,32,5.0,5.0,79,0.00,,,0.00,0,Wunderground v.1.15,2013-04-23 07:12:00,
2013-04-23 01:18:00,18.4,13.0,30.45,NE,34,4.0,6.0,79,0.00,,,0.00,0,Wunderground v.1.15,2013-04-23 07:18:00,
2013-04-23 01:24:00,18.1,12.7,30.44,NNE,25,4.0,5.0,79,0.00,,,0.00,0,Wunderground v.1.15,2013-04-23 07:24:00,
2013-04-23 01:30:00,18.1,13.0,30.45,NNE,21,4.0,5.0,80,0.00,,,0.00,0,Wunderground v.1.15,2013-04-23 07:30:00,
2013-04-23 01:36:00,18.1,13.0,30.45,NNE,24,4.0,5.0,80,0.00,,,0.00,0,Wunderground v.1.15,2013-04-23 07:36:00,
2013-04-23 01:42:00,18.1,12.7,30.45,NNE,22,4.0,4.0,79,0.00,,,0.00,0,Wunderground v.1.15,2013-04-23 07:42:00,
2013-04-23 01:48:00,18.2,12.8,30.45,NNE,24,3.0,4.0,79,0.00,,,0.00,0,Wunderground v.1.15,2013-04-23 07:48:00,
2013-04-23 01:56:00,18.1,12.4,30.44,NNE,28,3.0,3.0,78,0.00,,,0.00,0,Wunderground v.1.15,2013-04-23 07:56:00,
2013-04-23 02:02:00,18.0,12.3,30.44,NNE,28,4.0,4.0,78,0.00,,,0.00,0,Wunderground v.1.15,2013-04-23 08:02:00,
2013-04-23 02:10:00,18.0,12.6,30.44,NNE,28,3.0,3.0,79,0.00,,,0.00,0,Wunderground v.1.15,2013-04-23 08:10:00,
2013-04-23 02:18:00,17.9,12.2,30.43,NE,36,3.0,5.0,78,0.00,,,0.00,0,Wunderground v.1.15,2013-04-23 08:18:00,
2013-04-23 02:26:00,17.7,12.3,30.43,NE,49,3.0,4.0,79,0.00,,,0.00,0,Wunderground v.1.15,2013-04-23 08:26:00,
2013-04-23 02:32:00,17.6,12.2,30.43,North,5,4.0,8.0,79,0.00,,,0.00,0,Wunderground v.1.15,2013-04-23 08:32:00,
2013-04-23 02:40:00,18.0,12.9,30.43,North,5,5.0,10.0,80,0.00,,,0.00,0,Wunderground v.1.15,2013-04-23 08:40:00,
2013-04-23 02:48:00,18.3,12.6,30.42,NNE,19,6.0,10.0,78,0.00,,,0.00,0,Wunderground v.1.15,2013-04-23 08:48:00,
2013-04-23 02:54:00,18.1,12.4,30.42,NNE,12,6.0,6.0,78,0.00,,,0.00,0,Wunderground v.1.15,2013-04-23 08:54:00,
2013-04-23 03:00:00,17.7,12.0,30.42,NNE,24,5.0,5.0,78,0.00,,,0.00,0,Wunderground v.1.15,2013-04-23 09:00:00,
2013-04-23 03:06:00,17.4,12.0,30.42,NNE,23,5.0,6.0,79,0.00,,,0.00,0,Wunderground v.1.15,2013-04-23 09:06:00,
2013-04-23 03:12:00,17.1,11.7,30.42,NE,41,5.0,5.0,79,0.00,,,0.00,0,Wunderground v.1.15,2013-04-23 09:12:00,
2013-04-23 03:18:00,17.0,11.9,30.42,NE,34,5.0,6.0,80,0.00,,,0.00,0,Wunderground v.1.15,2013-04-23 09:18:00,
2013-04-23 03:24:00,17.0,11.9,30.42,NNE,32,6.0,6.0,80,0.00,,,0.00,0,Wunderground v.1.15,2013-04-23 09:24:00,
2013-04-23 03:32:00,16.8,11.7,30.41,NNE,16,6.0,6.0,80,0.00,,,0.00,0,Wunderground v.1.15,2013-04-23 09:32:00,
2013-04-23 03:38:00,16.7,11.6,30.41,NNE,17,6.0,7.0,80,0.00,,,0.00,0,Wunderground v.1.15,2013-04-23 09:38:00,
2013-04-23 03:44:00,16.5,11.4,30.41,NNE,19,7.0,7.0,80,0.00,,,0.00,0,Wunderground v.1.15,2013-04-23 09:44:00,
2013-04-23 03:50:00,16.4,11.6,30.40,NNE,27,7.0,7.0,81,0.00,,,0.00,0,Wunderground v.1.15,2013-04-23 09:50:00,
2013-04-23 03:56:00,16.5,11.7,30.40,NNE,25,5.0,9.0,81,0.00,,,0.00,0,Wunderground v.1.15,2013-04-23 09:56:00,
2013-04-23 04:02:00,16.7,11.9,30.40,NNE,19,5.0,5.0,81,0.00,,,0.00,0,Wunderground v.1.15,2013-04-23 10:02:00,
2013-04-23 04:08:00,16.7,11.6,30.40,NNE,14,7.0,9.0,80,0.00,,,0.00,0,Wunderground v.1.15,2013-04-23 10:08:00,
2013-04-23 04:14:00,16.6,11.5,30.40,NNE,27,7.0,7.0,80,0.00,,,0.00,0,Wunderground v.1.15,2013-04-23 10:14:00,
2013-04-23 04:20:00,16.4,11.3,30.40,NE,39,4.0,4.0,80,0.00,,,0.00,0,Wunderground v.1.15,2013-04-23 10:20:00,
2013-04-23 04:26:00,16.1,11.0,30.40,NNE,19,4.0,6.0,80,0.00,,,0.00,0,Wunderground v.1.15,2013-04-23 10:26:00,
2013-04-23 04:32:00,16.0,10.9,30.40,NNE,19,5.0,5.0,80,0.00,,,0.00,0,Wunderground v.1.15,2013-04-23 10:32:00,
2013-04-23 04:38:00,15.9,11.1,30.39,NNE,28,5.0,10.0,81,0.00,,,0.00,0,Wunderground v.1.15,2013-04-23 10:38:00,
2013-04-23 04:44:00,16.1,11.6,30.40,East,80,6.0,6.0,82,0.00,,,0.00,0,Wunderground v.1.15,2013-04-23 10:44:00,
2013-04-23 04:50:00,16.3,11.8,30.40,NNE,28,5.0,6.0,82,0.00,,,0.00,0,Wunderground v.1.15,2013-04-23 10:50:00,
2013-04-23 04:56:00,16.3,11.5,30.40,NNE,27,5.0,6.0,81,0.00,,,0.00,0,Wunderground v.1.15,2013-04-23 10:56:00,
2013-04-23 05:04:00,16.3,11.5,30.40,NE,47,5.0,8.0,81,0.00,,,0.00,0,Wunderground v.1.15,2013-04-23 11:04:00,
2013-04-23 05:12:00,16.4,11.6,30.40,NNE,24,6.0,7.0,81,0.00,,,0.00,0,Wunderground v.1.15,2013-04-23 11:12:00,
2013-04-23 05:18:00,16.5,11.7,30.40,North,355,6.0,10.0,81,0.00,,,0.00,0,Wunderground v.1.15,2013-04-23 11:18:00,
2013-04-23 05:26:00,16.7,11.9,30.40,NNE,28,5.0,7.0,81,0.00,,,0.00,0,Wunderground v.1.15,2013-04-23 11:26:00,
2013-04-23 05:32:00,16.9,12.1,30.40,NNE,32,5.0,9.0,81,0.00,,,0.00,0,Wunderground v.1.15,2013-04-23 11:32:00,
2013-04-23 05:38:00,17.1,12.0,30.40,NNE,22,7.0,9.0,80,0.00,,,0.00,0,Wunderground v.1.15,2013-04-23 11:38:00,
2013-04-23 05:44:00,17.1,11.7,30.40,NNE,32,7.0,7.0,79,0.00,,,0.00,0,Wunderground v.1.15,2013-04-23 11:44:00,
2013-04-23 05:50:00,17.0,11.6,30.40,ENE,74,5.0,5.0,79,0.00,,,0.00,0,Wunderground v.1.15,2013-04-23 11:50:00,
2013-04-23 05:56:00,16.9,11.5,30.40,ENE,63,4.0,6.0,79,0.00,,,0.00,0,Wunderground v.1.15,2013-04-23 11:56:00,
2013-04-23 06:02:00,16.9,11.5,30.40,NNE,32,5.0,6.0,79,0.00,,,0.00,0,Wunderground v.1.15,2013-04-23 12:02:00,
2013-04-23 06:08:00,16.8,11.1,30.40,NE,34,5.0,6.0,78,0.00,,,0.00,0,Wunderground v.1.15,2013-04-23 12:08:00,
2013-04-23 06:14:00,16.7,10.7,30.40,NE,52,5.0,8.0,77,0.00,,,0.00,0,Wunderground v.1.15,2013-04-23 12:14:00,
2013-04-23 06:20:00,16.3,10.6,30.41,NNE,31,5.0,5.0,78,0.00,,,0.00,0,Wunderground v.1.15,2013-04-23 12:20:00,
2013-04-23 06:26:00,16.0,10.3,30.41,NNE,33,5.0,6.0,78,0.00,,,0.00,0,Wunderground v.1.15,2013-04-23 12:26:00,
2013-04-23 06:32:00,15.8,10.4,30.41,NNE,19,4.0,4.0,79,0.00,,,0.00,5,Wunderground v.1.15,2013-04-23 12:32:00,
2013-04-23 06:38:00,15.6,10.5,30.41,NNE,19,4.0,4.0,80,0.00,,,0.00,9,Wunderground v.1.15,2013-04-23 12:38:00,
2013-04-23 06:44:00,15.5,10.7,30.41,NNE,19,2.0,3.0,81,0.00,,,0.00,12,Wunderground v.1.15,2013-04-23 12:44:00,
2013-04-23 06:58:00,15.6,10.8,30.41,NE,42,1.0,1.0,81,0.00,,,0.00,19,Wunderground v.1.15,2013-04-23 12:58:00,
2013-04-23 07:06:00,15.7,10.9,30.41,NE,42,0.0,2.0,81,0.00,,,0.00,23,Wunderground v.1.15,2013-04-23 13:06:00,
2013-04-23 07:14:00,15.9,11.1,30.40,NE,34,1.0,2.0,81,0.00,,,0.00,26,Wunderground v.1.15,2013-04-23 13:14:00,
2013-04-23 07:24:00,16.3,11.5,30.40,NE,34,2.0,2.0,81,0.00,,,0.00,32,Wunderground v.1.15,2013-04-23 13:24:00,
2013-04-23 07:32:00,16.9,12.4,30.40,NE,36,2.0,3.0,82,0.00,,,0.00,37,Wunderground v.1.15,2013-04-23 13:32:00,
2013-04-23 07:38:00,17.6,13.0,30.40,NE,36,3.0,4.0,82,0.00,,,0.00,35,Wunderground v.1.15,2013-04-23 13:38:00,
2013-04-23 07:44:00,18.2,13.6,30.40,NE,36,2.0,3.0,82,0.00,,,0.00,37,Wunderground v.1.15,2013-04-23 13:44:00,
2013-04-23 07:52:00,19.2,14.3,30.40,NNE,13,0.0,4.0,81,0.00,,,0.00,72,Wunderground v.1.15,2013-04-23 13:52:00,
2013-04-23 07:58:00,20.3,15.4,30.40,NNE,13,1.0,4.0,81,0.00,,,0.00,113,Wunderground v.1.15,2013-04-23 13:58:00,
2013-04-23 08:14:00,22.1,16.3,30.39,NNE,13,0.0,3.0,78,0.00,,,0.00,264,Wunderground v.1.15,2013-04-23 14:14:00,
2013-04-23 08:20:00,22.8,16.7,30.39,NNE,13,1.0,1.0,77,0.00,,,0.00,169,Wunderground v.1.15,2013-04-23 14:20:00,
2013-04-23 08:26:00,23.3,16.9,30.40,North,5,1.0,2.0,76,0.00,,,0.00,276,Wunderground v.1.15,2013-04-23 14:26:00,
2013-04-23 08:32:00,23.5,17.0,30.39,North,5,1.0,1.0,76,0.00,,,0.00,279,Wunderground v.1.15,2013-04-23 14:32:00,
2013-04-23 08:38:00,24.8,18.9,30.39,SW,219,1.0,4.0,78,0.00,,,0.00,355,Wunderground v.1.15,2013-04-23 14:38:00,
2013-04-23 08:44:00,25.7,19.5,30.39,SW,218,2.0,3.0,77,0.00,,,0.00,309,Wunderground v.1.15,2013-04-23 14:44:00,
2013-04-23 08:50:00,26.5,20.0,30.39,SW,236,3.0,6.0,76,0.00,,,0.00,338,Wunderground v.1.15,2013-04-23 14:50:00,
2013-04-23 08:58:00,27.2,19.7,30.39,SW,236,3.0,6.0,73,0.00,,,0.00,367,Wunderground v.1.15,2013-04-23 14:58:00,
2013-04-23 09:04:00,27.6,19.4,30.39,WSW,240,3.0,3.0,71,0.00,,,0.00,394,Wunderground v.1.15,2013-04-23 15:04:00,
2013-04-23 09:10:00,28.0,19.8,30.38,SW,217,3.0,3.0,71,0.00,,,0.00,425,Wunderground v.1.15,2013-04-23 15:10:00,
2013-04-23 09:18:00,28.8,19.9,30.38,WSW,238,2.0,3.0,69,0.00,,,0.00,466,Wunderground v.1.15,2013-04-23 15:18:00,
2013-04-23 09:26:00,29.6,20.3,30.38,WSW,244,2.0,3.0,68,0.00,,,0.00,494,Wunderground v.1.15,2013-04-23 15:26:00,
2013-04-23 09:34:00,30.4,20.0,30.38,SW,236,1.0,2.0,65,0.00,,,0.00,506,Wunderground v.1.15,2013-04-23 15:34:00,
2013-04-23 09:40:00,31.0,20.6,30.37,SW,233,2.0,3.0,65,0.00,,,0.00,527,Wunderground v.1.15,2013-04-23 15:40:00,
2013-04-23 09:46:00,31.6,20.4,30.37,WSW,240,2.0,3.0,63,0.00,,,0.00,552,Wunderground v.1.15,2013-04-23 15:46:00,
2013-04-23 09:54:00,32.6,20.2,30.36,WSW,249,2.0,2.0,60,0.00,,,0.00,580,Wunderground v.1.15,2013-04-23 15:54:00,
2013-04-23 10:00:00,33.5,21.1,30.36,SW,217,2.0,2.0,60,0.00,,,0.00,599,Wunderground v.1.15,2013-04-23 16:00:00,
2013-04-23 10:06:00,33.9,20.7,30.35,SW,217,1.0,2.0,58,0.00,,,0.00,617,Wunderground v.1.15,2013-04-23 16:06:00,
2013-04-23 10:12:00,34.6,20.9,30.35,SW,236,1.0,2.0,57,0.00,,,0.00,633,Wunderground v.1.15,2013-04-23 16:12:00,
2013-04-23 10:18:00,35.4,20.8,30.34,WNW,296,2.0,2.0,55,0.00,,,0.00,656,Wunderground v.1.15,2013-04-23 16:18:00,
2013-04-23 10:24:00,36.4,20.4,30.34,South,183,2.0,4.0,52,0.00,,,0.00,657,Wunderground v.1.15,2013-04-23 16:24:00,
2013-04-23 10:30:00,37.1,21.1,30.34,South,169,2.0,2.0,52,0.00,,,0.00,680,Wunderground v.1.15,2013-04-23 16:30:00,
2013-04-23 10:36:00,37.8,20.8,30.33,South,169,1.0,2.0,50,0.00,,,0.00,700,Wunderground v.1.15,2013-04-23 16:36:00,
2013-04-23 10:42:00,38.5,21.5,30.33,West,279,2.0,3.0,50,0.00,,,0.00,738,Wunderground v.1.15,2013-04-23 16:42:00,
2013-04-23 10:48:00,39.2,18.5,30.32,NW,325,2.0,4.0,43,0.00,,,0.00,715,Wunderground v.1.15,2013-04-23 16:48:00,
2013-04-23 10:54:00,40.0,20.3,30.32,South,179,2.0,3.0,45,0.00,,,0.00,642,Wunderground v.1.15,2013-04-23 16:54:00,
2013-04-23 11:00:00,40.6,19.8,30.31,SSW,200,3.0,4.0,43,0.00,,,0.00,694,Wunderground v.1.15,2013-04-23 17:00:00,
2013-04-23 11:06:00,41.1,19.7,30.31,South,191,2.0,4.0,42,0.00,,,0.00,712,Wunderground v.1.15,2013-04-23 17:06:00,
2013-04-23 11:12:00,41.6,20.7,30.31,South,182,4.0,6.0,43,0.00,,,0.00,738,Wunderground v.1.15,2013-04-23 17:12:00,
2013-04-23 11:18:00,42.0,21.1,30.31,SSW,199,4.0,6.0,43,0.00,,,0.00,777,Wunderground v.1.15,2013-04-23 17:18:00,
2013-04-23 11:24:00,42.6,22.2,30.31,South,189,4.0,7.0,44,0.00,,,0.00,830,Wunderground v.1.15,2013-04-23 17:24:00,
2013-04-23 11:30:00,43.2,19.9,30.31,WSW,252,6.0,6.0,39,0.00,,,0.00,817,Wunderground v.1.15,2013-04-23 17:30:00,
2013-04-23 11:36:00,43.5,20.2,30.31,SSW,204,5.0,7.0,39,0.00,,,0.00,784,Wunderground v.1.15,2013-04-23 17:36:00,
2013-04-23 11:42:00,43.8,19.8,30.30,WSW,246,6.0,7.0,38,0.00,,,0.00,714,Wunderground v.1.15,2013-04-23 17:42:00,
2013-04-23 11:48:00,43.7,19.1,30.31,SSW,194,5.0,7.0,37,0.00,,,0.00,710,Wunderground v.1.15,2013-04-23 17:48:00,
2013-04-23 11:54:00,43.6,19.0,30.30,SW,219,5.0,7.0,37,0.00,,,0.00,714,Wunderground v.1.15,2013-04-23 17:54:00,
2013-04-23 12:00:00,43.8,19.8,30.30,SW,215,6.0,6.0,38,0.00,,,0.00,708,Wunderground v.1.15,2013-04-23 18:00:00,
2013-04-23 12:06:00,44.1,18.8,30.30,SSW,206,7.0,10.0,36,0.00,,,0.00,680,Wunderground v.1.15,2013-04-23 18:06:00,
2013-04-23 12:12:00,43.9,18.6,30.30,SW,217,7.0,9.0,36,0.00,,,0.00,714,Wunderground v.1.15,2013-04-23 18:12:00,
2013-04-23 12:18:00,43.8,19.8,30.29,South,191,7.0,12.0,38,0.00,,,0.00,752,Wunderground v.1.15,2013-04-23 18:18:00,
2013-04-23 12:24:00,44.0,19.4,30.29,SW,222,8.0,9.0,37,0.00,,,0.00,861,Wunderground v.1.15,2013-04-23 18:24:00,
2013-04-23 12:30:00,44.3,20.3,30.29,SSW,201,7.0,12.0,38,0.00,,,0.00,791,Wunderground v.1.15,2013-04-23 18:30:00,
2013-04-23 12:36:00,44.9,20.2,30.29,SSW,192,7.0,12.0,37,0.00,,,0.00,724,Wunderground v.1.15,2013-04-23 18:36:00,
2013-04-23 12:42:00,44.9,19.5,30.29,SW,217,9.0,14.0,36,0.00,,,0.00,624,Wunderground v.1.15,2013-04-23 18:42:00,
2013-04-23 12:48:00,44.4,21.0,30.29,SW,234,10.0,14.0,39,0.00,,,0.00,554,Wunderground v.1.15,2013-04-23 18:48:00,
2013-04-23 12:54:00,44.1,20.7,30.29,WSW,238,10.0,12.0,39,0.00,,,0.00,555,Wunderground v.1.15,2013-04-23 18:54:00,
2013-04-23 13:00:00,43.8,19.2,30.28,SW,233,10.0,12.0,37,0.00,,,0.00,615,Wunderground v.1.15,2013-04-23 19:00:00,
2013-04-23 13:06:00,43.2,19.3,30.28,SW,217,10.0,12.0,38,0.00,,,0.00,596,Wunderground v.1.15,2013-04-23 19:06:00,
2013-04-23 13:12:00,43.4,20.1,30.28,SSW,210,8.0,11.0,39,0.00,,,0.00,538,Wunderground v.1.15,2013-04-23 19:12:00,
2013-04-23 13:18:00,43.7,20.3,30.28,SSW,207,9.0,13.0,39,0.00,,,0.00,554,Wunderground v.1.15,2013-04-23 19:18:00,
2013-04-23 13:24:00,43.8,20.4,30.28,SSW,209,9.0,11.0,39,0.00,,,0.00,559,Wunderground v.1.15,2013-04-23 19:24:00,
2013-04-23 13:30:00,43.8,19.8,30.28,SSW,202,8.0,8.0,38,0.00,,,0.00,577,Wunderground v.1.15,2013-04-23 19:30:00,
2013-04-23 13:36:00,44.1,19.5,30.28,SW,234,7.0,9.0,37,0.00,,,0.00,557,Wunderground v.1.15,2013-04-23 19:36:00,
2013-04-23 13:42:00,44.3,19.6,30.28,South,190,7.0,11.0,37,0.00,,,0.00,563,Wunderground v.1.15,2013-04-23 19:42:00,
2013-04-23 13:48:00,44.5,19.8,30.27,SSW,194,7.0,12.0,37,0.00,,,0.00,545,Wunderground v.1.15,2013-04-23 19:48:00,
2013-04-23 13:54:00,44.8,20.1,30.27,SSW,209,7.0,8.0,37,0.00,,,0.00,517,Wunderground v.1.15,2013-04-23 19:54:00,
2013-04-23 14:00:00,44.5,20.4,30.27,SSW,196,7.0,12.0,38,0.00,,,0.00,534,Wunderground v.1.15,2013-04-23 20:00:00,
2013-04-23 14:06:00,44.5,19.2,30.27,SW,215,7.0,12.0,36,0.00,,,0.00,519,Wunderground v.1.15,2013-04-23 20:06:00,
2013-04-23 14:12:00,44.2,19.5,30.27,WSW,239,8.0,12.0,37,0.00,,,0.00,492,Wunderground v.1.15,2013-04-23 20:12:00,
2013-04-23 14:18:00,44.0,20.0,30.27,SSW,199,9.0,12.0,38,0.00,,,0.00,445,Wunderground v.1.15,2013-04-23 20:18:00,
2013-04-23 14:24:00,44.0,19.4,30.27,SW,231,8.0,10.0,37,0.00,,,0.00,413,Wunderground v.1.15,2013-04-23 20:24:00,
2013-04-23 14:30:00,44.0,20.0,30.27,SSW,199,6.0,9.0,38,0.00,,,0.00,420,Wunderground v.1.15,2013-04-23 20:30:00,
2013-04-23 14:36:00,44.0,19.4,30.27,SSW,196,6.0,11.0,37,0.00,,,0.00,427,Wunderground v.1.15,2013-04-23 20:36:00,
2013-04-23 14:42:00,43.9,18.6,30.26,West,263,6.0,10.0,36,0.00,,,0.00,392,Wunderground v.1.15,2013-04-23 20:42:00,
2013-04-23 14:48:00,43.8,19.8,30.26,SW,236,6.0,10.0,38,0.00,,,0.00,431,Wunderground v.1.15,2013-04-23 20:48:00,
2013-04-23 14:54:00,44.0,19.4,30.26,SW,219,7.0,11.0,37,0.00,,,0.00,450,Wunderground v.1.15,2013-04-23 20:54:00,
2013-04-23 15:00:00,44.2,20.8,30.26,SSW,202,8.0,14.0,39,0.00,,,0.00,394,Wunderground v.1.15,2013-04-23 21:00:00,
2013-04-23 15:06:00,44.2,20.8,30.26,SSW,202,10.0,14.0,39,0.00,,,0.00,394,Wunderground v.1.15,2013-04-23 21:06:00,
2013-04-23 15:12:00,44.1,20.1,30.26,SSW,202,9.0,12.0,38,0.00,,,0.00,336,Wunderground v.1.15,2013-04-23 21:12:00,
2013-04-23 15:18:00,43.7,19.1,30.26,SW,223,9.0,12.0,37,0.00,,,0.00,380,Wunderground v.1.15,2013-04-23 21:18:00,
2013-04-23 15:24:00,43.3,20.0,30.26,SSW,194,10.0,14.0,39,0.00,,,0.00,445,Wunderground v.1.15,2013-04-23 21:24:00,
2013-04-23 15:30:00,43.3,19.4,30.26,SW,222,9.0,9.0,38,0.00,,,0.00,341,Wunderground v.1.15,2013-04-23 21:30:00,
2013-04-23 15:36:00,43.1,18.6,30.26,SW,225,8.0,9.0,37,0.00,,,0.00,311,Wunderground v.1.15,2013-04-23 21:36:00,
2013-04-23 15:42:00,43.0,18.5,30.26,SW,217,7.0,10.0,37,0.00,,,0.00,294,Wunderground v.1.15,2013-04-23 21:42:00,
2013-04-23 15:48:00,42.9,19.6,30.25,WSW,240,7.0,10.0,39,0.00,,,0.00,315,Wunderground v.1.15,2013-04-23 21:48:00,
2013-04-23 15:54:00,43.1,19.8,30.25,WSW,246,8.0,12.0,39,0.00,,,0.00,350,Wunderground v.1.15,2013-04-23 21:54:00,
2013-04-23 16:00:00,43.2,19.3,30.25,ESE,121,6.0,7.0,38,0.00,,,0.00,371,Wunderground v.1.15,2013-04-23 22:00:00,
2013-04-23 16:06:00,43.4,20.1,30.26,SE,144,5.0,9.0,39,0.00,,,0.00,346,Wunderground v.1.15,2013-04-23 22:06:00,
2013-04-23 16:12:00,43.6,19.0,30.25,SSE,157,8.0,13.0,37,0.00,,,0.00,322,Wunderground v.1.15,2013-04-23 22:12:00,
2013-04-23 16:18:00,43.5,18.9,30.25,South,170,11.0,15.0,37,0.00,,,0.00,301,Wunderground v.1.15,2013-04-23 22:18:00,
2013-04-23 16:24:00,43.2,19.3,30.25,South,186,11.0,11.0,38,0.00,,,0.00,285,Wunderground v.1.15,2013-04-23 22:24:00,
2013-04-23 16:30:00,43.2,18.6,30.25,South,183,9.0,15.0,37,0.00,,,0.00,295,Wunderground v.1.15,2013-04-23 22:30:00,
2013-04-23 16:36:00,43.2,18.6,30.25,South,175,11.0,15.0,37,0.00,,,0.00,302,Wunderground v.1.15,2013-04-23 22:36:00,
2013-04-23 16:42:00,43.2,18.6,30.25,South,188,11.0,11.0,37,0.00,,,0.00,304,Wunderground v.1.15,2013-04-23 22:42:00,
2013-04-23 16:48:00,43.1,17.9,30.25,SSW,196,11.0,11.0,36,0.00,,,0.00,308,Wunderground v.1.15,2013-04-23 22:48:00,
2013-04-23 16:54:00,43.1,18.6,30.25,South,183,10.0,15.0,37,0.00,,,0.00,311,Wunderground v.1.15,2013-04-23 22:54:00,
2013-04-23 17:00:00,43.2,19.3,30.25,SE,145,9.0,10.0,38,0.00,,,0.00,330,Wunderground v.1.15,2013-04-23 23:00:00,
2013-04-23 17:06:00,43.3,18.1,30.24,SSE,160,10.0,12.0,36,0.00,,,0.00,367,Wunderground v.1.15,2013-04-23 23:06:00,
2013-04-23 17:12:00,43.5,17.6,30.24,South,171,11.0,14.0,35,0.00,,,0.00,462,Wunderground v.1.15,2013-04-23 23:12:00,
2013-04-23 17:18:00,44.0,18.1,30.24,South,181,10.0,14.0,35,0.00,,,0.00,341,Wunderground v.1.15,2013-04-23 23:18:00,
2013-04-23 17:24:00,44.4,18.4,30.24,South,181,9.0,12.0,35,0.00,,,0.00,615,Wunderground v.1.15,2013-04-23 23:24:00,
2013-04-23 17:30:00,44.9,17.5,30.24,South,186,8.0,8.0,33,0.00,,,0.00,230,Wunderground v.1.15,2013-04-23 23:30:00,
2013-04-23 17:36:00,44.7,18.0,30.24,SSW,192,8.0,9.0,34,0.00,,,0.00,185,Wunderground v.1.15,2013-04-23 23:36:00,
2013-04-23 17:42:00,44.3,17.0,30.24,South,172,8.0,8.0,33,0.00,,,0.00,155,Wunderground v.1.15,2013-04-23 23:42:00,
2013-04-23 17:48:00,43.7,16.4,30.24,SSE,151,7.0,11.0,33,0.00,,,0.00,165,Wunderground v.1.15,2013-04-23 23:48:00,
2013-04-23 17:56:00,43.3,17.4,30.24,SE,145,4.0,6.0,35,0.00,,,0.00,200,Wunderground v.1.15,2013-04-23 23:56:00,
2013-04-23 18:04:00,43.2,18.0,30.24,SSE,158,5.0,5.0,36,0.00,,,0.00,141,Wunderground v.1.15,2013-04-24 00:04:00,
2013-04-23 18:12:00,42.9,18.4,30.24,SE,146,6.0,10.0,37,0.00,,,0.00,387,Wunderground v.1.15,2013-04-24 00:12:00,
2013-04-23 18:18:00,43.2,18.0,30.24,SE,128,6.0,10.0,36,0.00,,,0.00,506,Wunderground v.1.15,2013-04-24 00:18:00,
2013-04-23 18:24:00,43.7,19.1,30.24,SE,140,6.0,10.0,37,0.00,,,0.00,490,Wunderground v.1.15,2013-04-24 00:24:00,
2013-04-23 18:32:00,44.5,17.8,30.24,SE,146,7.0,12.0,34,0.00,,,0.00,478,Wunderground v.1.15,2013-04-24 00:32:00,
2013-04-23 18:38:00,44.7,18.0,30.24,SE,138,9.0,12.0,34,0.00,,,0.00,432,Wunderground v.1.15,2013-04-24 00:38:00,
2013-04-23 18:44:00,44.6,17.2,30.24,SE,137,9.0,10.0,33,0.00,,,0.00,237,Wunderground v.1.15,2013-04-24 00:44:00,
2013-04-23 18:50:00,44.3,17.0,30.24,SE,145,8.0,8.0,33,0.00,,,0.00,320,Wunderground v.1.15,2013-04-24 00:50:00,
2013-04-23 18:56:00,44.1,18.2,30.24,SSE,151,8.0,10.0,35,0.00,,,0.00,216,Wunderground v.1.15,2013-04-24 00:56:00,
2013-04-23 19:02:00,43.6,19.0,30.24,SSE,152,9.0,9.0,37,0.00,,,0.00,100,Wunderground v.1.15,2013-04-24 01:02:00,
2013-04-23 19:08:00,42.5,18.6,30.24,SSE,168,10.0,11.0,38,0.00,,,0.00,88,Wunderground v.1.15,2013-04-24 01:08:00,
2013-04-23 19:14:00,41.6,18.4,30.24,South,173,10.0,13.0,39,0.00,,,0.00,155,Wunderground v.1.15,2013-04-24 01:14:00,
2013-04-23 19:20:00,41.3,18.8,30.24,South,177,9.0,14.0,40,0.00,,,0.00,174,Wunderground v.1.15,2013-04-24 01:20:00,
2013-04-23 19:26:00,41.2,18.1,30.24,SSE,154,11.0,14.0,39,0.00,,,0.00,169,Wunderground v.1.15,2013-04-24 01:26:00,
2013-04-23 19:32:00,41.1,18.0,30.25,SSE,159,11.0,13.0,39,0.00,,,0.00,70,Wunderground v.1.15,2013-04-24 01:32:00,
2013-04-23 19:38:00,40.7,18.8,30.25,SSE,148,11.0,13.0,41,0.00,,,0.00,65,Wunderground v.1.15,2013-04-24 01:38:00,
2013-04-23 19:46:00,39.9,19.2,30.25,SE,133,8.0,10.0,43,0.00,,,0.00,44,Wunderground v.1.15,2013-04-24 01:46:00,
2013-04-23 19:52:00,39.3,19.2,30.25,SE,139,6.0,6.0,44,0.00,,,0.00,32,Wunderground v.1.15,2013-04-24 01:52:00,
2013-04-23 19:58:00,38.6,19.1,30.25,SE,130,6.0,6.0,45,0.00,,,0.00,28,Wunderground v.1.15,2013-04-24 01:58:00,
2013-04-23 20:04:00,38.0,19.5,30.25,SE,135,5.0,6.0,47,0.00,,,0.00,23,Wunderground v.1.15,2013-04-24 02:04:00,
2013-04-23 20:14:00,37.1,20.2,30.25,ESE,117,6.0,6.0,50,0.00,,,0.00,16,Wunderground v.1.15,2013-04-24 02:14:00,
2013-04-23 20:22:00,36.5,20.1,30.25,SE,124,5.0,5.0,51,0.00,,,0.00,11,Wunderground v.1.15,2013-04-24 02:22:00,
2013-04-23 20:28:00,36.2,19.8,30.25,ESE,123,4.0,6.0,51,0.00,,,0.00,7,Wunderground v.1.15,2013-04-24 02:28:00,
2013-04-23 20:34:00,35.8,19.9,30.25,ESE,119,4.0,5.0,52,0.00,,,0.00,0,Wunderground v.1.15,2013-04-24 02:34:00,
2013-04-23 20:40:00,35.5,20.0,30.25,ESE,123,5.0,5.0,53,0.00,,,0.00,0,Wunderground v.1.15,2013-04-24 02:40:00,
2013-04-23 20:46:00,35.4,19.9,30.26,SE,132,5.0,6.0,53,0.00,,,0.00,0,Wunderground v.1.15,2013-04-24 02:46:00,
2013-04-23 20:52:00,35.3,19.9,30.26,SE,134,4.0,5.0,53,0.00,,,0.00,0,Wunderground v.1.15,2013-04-24 02:52:00,
2013-04-23 20:58:00,35.2,19.8,30.26,SE,134,4.0,5.0,53,0.00,,,0.00,0,Wunderground v.1.15,2013-04-24 02:58:00,
2013-04-23 21:04:00,35.0,19.6,30.27,SE,137,4.0,5.0,53,0.00,,,0.00,0,Wunderground v.1.15,2013-04-24 03:04:00,
2013-04-23 21:12:00,34.8,19.4,30.27,SE,136,3.0,3.0,53,0.00,,,0.00,0,Wunderground v.1.15,2013-04-24 03:12:00,
2013-04-23 21:18:00,34.5,18.7,30.27,SSE,150,3.0,4.0,52,0.00,,,0.00,0,Wunderground v.1.15,2013-04-24 03:18:00,
2013-04-23 21:24:00,34.1,20.0,30.27,SSE,151,2.0,2.0,56,0.00,,,0.00,0,Wunderground v.1.15,2013-04-24 03:24:00,
2013-04-23 21:30:00,33.8,20.2,30.28,SSE,151,0.0,0.0,57,0.00,,,0.00,0,Wunderground v.1.15,2013-04-24 03:30:00,
2013-04-23 21:36:00,33.5,19.9,30.28,SSE,162,1.0,1.0,57,0.00,,,0.00,0,Wunderground v.1.15,2013-04-24 03:36:00,
2013-04-23 21:46:00,33.3,20.1,30.28,SSE,162,1.0,2.0,58,0.00,,,0.00,0,Wunderground v.1.15,2013-04-24 03:46:00,
2013-04-23 21:52:00,33.3,20.1,30.28,SSE,162,1.0,2.0,58,0.00,,,0.00,0,Wunderground v.1.15,2013-04-24 03:52:00,
2013-04-23 22:02:00,33.0,20.2,30.28,SSE,162,0.0,1.0,59,0.00,,,0.00,0,Wunderground v.1.15,2013-04-24 04:02:00,
2013-04-23 22:06:00,32.8,19.6,30.28,SSE,165,1.0,3.0,58,0.00,,,0.00,0,Wunderground v.1.15,2013-04-24 04:06:00,
2013-04-23 22:10:00,32.7,19.5,30.28,South,173,1.0,5.0,58,0.00,,,0.00,0,Wunderground v.1.15,2013-04-24 04:10:00,
2013-04-23 22:12:00,32.7,19.5,30.28,SSW,196,1.0,5.0,58,0.00,,,0.00,0,Wunderground v.1.15,2013-04-24 04:12:00,
2013-04-23 22:18:00,32.7,19.9,30.28,South,190,4.0,6.0,59,0.00,,,0.00,0,Wunderground v.1.15,2013-04-24 04:18:00,
2013-04-23 22:24:00,33.0,19.8,30.28,South,186,5.0,5.0,58,0.00,,,0.00,0,Wunderground v.1.15,2013-04-24 04:24:00,
2013-04-23 22:34:00,33.3,20.1,30.28,South,186,0.0,0.0,58,0.00,,,0.00,0,Wunderground v.1.15,2013-04-24 04:34:00,
2013-04-23 22:40:00,33.3,19.7,30.28,South,186,0.0,0.0,57,0.00,,,0.00,0,Wunderground v.1.15,2013-04-24 04:40:00,
2013-04-23 22:46:00,33.1,19.5,30.28,South,186,0.0,0.0,57,0.00,,,0.00,0,Wunderground v.1.15,2013-04-24 04:46:00,
2013-04-23 22:54:00,32.7,19.9,30.29,South,186,0.0,0.0,59,0.00,,,0.00,0,Wunderground v.1.15,2013-04-24 04:54:00,
2013-04-23 23:00:00,32.5,20.1,30.29,South,186,1.0,1.0,60,0.00,,,0.00,0,Wunderground v.1.15,2013-04-24 05:00:00,
2013-04-23 23:06:00,32.3,19.2,30.28,South,186,1.0,1.0,58,0.00,,,0.00,0,Wunderground v.1.15,2013-04-24 05:06:00,
2013-04-23 23:14:00,32.0,20.4,30.28,South,186,0.0,0.0,62,0.00,,,0.00,0,Wunderground v.1.15,2013-04-24 05:14:00,
2013-04-23 23:26:00,31.6,20.1,30.28,South,186,0.0,0.0,62,0.00,,,0.00,0,Wunderground v.1.15,2013-04-24 05:26:00,
2013-04-23 23:32:00,31.3,19.8,30.28,South,186,0.0,2.0,62,0.00,,,0.00,0,Wunderground v.1.15,2013-04-24 05:32:00,
2013-04-23 23:38:00,30.8,19.3,30.28,South,186,1.0,2.0,62,0.00,,,0.00,0,Wunderground v.1.15,2013-04-24 05:38:00,
2013-04-23 23:48:00,30.0,19.3,30.28,West,259,2.0,4.0,64,0.00,,,0.00,0,Wunderground v.1.15,2013-04-24 05:48:00,
2013-04-23 23:54:00,29.6,19.6,30.28,West,259,2.0,2.0,66,0.00,,,0.00,0,Wunderground v.1.15,2013-04-24 05:54:00,